DECAYED
Showing default

HIBER-2, 43774 (Decayed)

Orbit data source: Space-Track

HIBER-2, 43774 was a payload satellite owned by Hiber (NL) in LEO that was launched on Mon, 03 Dec 2018 UTC via an FALCON 9 launch vehicle from the Air Force Western Test Range (AFWTR). Payload-class satellites include a variety of spacecraft equipped with specific instruments for various scientific and technological missions. These include communications satellites like Starlink; space stations such as the ISS; scientific satellites like the Hubble; Earth observation satellites from companies like Planet Labs, Umbra, and HawkEye 360; GPS; miniature CubeSats for education and research; and military/defense satellites.

Not visible in the next 10 days
Identifier
43774, 2018-099S
Orbit
Decayed
Country
Flag of NLNL / NETH
Related business
Manufacturer
ISIS BV
Mission
Decayed Commercial Communications
Bus & Motor
CUBESAT 6U, Unknown motor
Mass
10 kg wet, 10 kg dry
Launch date (UTC)
2018-12-03 (8 years ago)
Launch vehicle
FALCON 9
Launch site
Air Force Western Test Range (AFWTR)
Object type
Payload
Rocket body
Debris
Shape & HBR
Box + 2 Pan, 0.7 m
Radar Cross Section
0.143 m², Medium (>0.1 m² and < 1m²)

Expand to show TLE details & history
Last TLE update: 5 months ago

TLE from 5 months ago
0 HIBER-2
1 43774U 18099S   26028.96940761  .08639631  25068-5  13938-2 0  9990
2 43774  97.4270 113.4809 0009314 286.8843  73.1432 16.33569322393452
Epoch: 2026-01-28T23:15Z
TLE epoch observation values (Epoch: 2026-01-28T23:15:56.817Z)
Latitude
0.00004°
Longitude
-3.73467°
Altitude
184.44 km
Speed
7.797 km/s
True Right ascension
07h 33m 55s
True Declination
0° 00' 00"
Sunlit
Object was in full shadow at epoch
Visualization orbit readout
Latitude
Unknown
Longitude
Unknown
Altitude
Unknown
Speed
Unknown
Apparent Right ascension
Unknown
Apparent Declination
Unknown
Sunlit
N/A
Visualization observer readout
Local Sidereal Time
21:38:17
Azimuth
Unknown
Elevation
Unknown
Doppler factor
Unknown
Orbital elements
Apogee altitude
185.89 km
Perigee altitude
173.674 km
Semi-major axis
6,557.919 km
Eccentricity
0.00093
Inclination
97.427°
RAAN
113.4809°
Arg. of periapsis
286.8843°
True anomaly
73.24538°
Mean anomaly
73.1432°
Eccentric anomaly
73.19429°
Mean motion
4.0869 °/min
Orbital period
88.09 mins
BSTAR
0.0013938
Loading maneuver chart data...
Computing Atmospheric mass density...
Loading historical data...
Loading historical data...
Loading historical data...
Loading historical data...
Loading historical data...
Loading historical data...
Loading historical data...

Documentation

Showing up to 5 results
|